[[{"header":{"parameterUnit":"m.s-1","parameterCategory":1,"la1":30.2991,"la2":30.254,"lo1":-89.0895,"lo2":-89.0444,"dx":0.0017,"dy":0.0017,"nx":28,"ny":28,"refTime":"2022-11-19T09:00:00:Z","depth":0,"parameterNumber":2,"parameterNumberName":"U-component_of_WINDS"},"data":[0,0,0,0,0,0,0,0,0,0,0,0,0,0,0,0,0,0,0,0,0,0,0,0,0,0,0,0,0,0,0,0,0,0,0,0,0,0,0,0,0,0,0,0,0,0,0,0,0,0,0,0,0,0,0,0,0,0,-4.0773,-4.0773,0,-4.0775,-4.0775,-4.0775,-4.0602,-4.0598,-4.0593,-4.0589,-4.0594,-4.0598,-4.0603,0,0,0,0,0,0,0,0,0,0,0,0,0,-4.0621,-4.0625,-4.0773,-4.0773,-4.0773,-4.0775,-4.0775,-4.0775,-4.0603,-4.0598,-4.0592,-4.0587,-4.0592,-4.0598,-4.0603,0,0,0,0,0,0,0,0,0,0,0,0,0,-4.0662,-4.0626,-4.0773,-4.0688,-4.068,-4.0775,-4.0775,-4.0775,-4.0604,-4.0597,-4.0591,-4.0584,-4.0591,-4.0597,-4.0604,-4.0782,0,0,-4.0624,-4.0627,0,0,0,0,0,0,0,0,-4.066,-4.0668,-4.07,-4.0694,-4.0685,-4.0681,-4.0723,-4.0778,-4.0606,-4.0633,-4.0589,-4.0581,-4.0629,-4.0632,-4.0647,-4.0782,-4.0782,-4.0624,-4.0628,-4.0631,-4.0633,0,0,0,0,0,0,0,-4.0657,-4.0667,-4.0774,-4.0701,-4.0692,-4.0649,-4.0648,-4.0733,-4.067,-4.063,-4.0618,-4.062,-4.0623,-4.0642,-4.0646,-4.0783,-4.0624,-4.063,-4.0634,-4.0637,-4.1063,-4.107,0,0,0,0,0,0,-4.0666,-4.0666,-4.0774,-4.0774,-4.0655,-4.0658,-4.0656,-4.069,-4.0668,-4.0658,-4.0626,-4.0612,-4.0634,-4.0639,-4.0646,-4.0853,-4.0631,-4.0637,-4.0641,-4.1056,-4.1065,-4.1073,0,0,0,0,0,0,-4.0663,-4.0677,-4.0774,-4.0716,-4.0725,-4.0668,-4.0707,-4.0693,-4.0711,-4.0665,-4.0653,-4.0656,-4.0628,-4.0636,-4.0749,-4.0851,-4.064,-4.0646,-4.1047,-4.1059,-4.1069,-4.127,0,0,0,0,0,0,-4.066,-4.0677,-4.0745,-4.0719,-4.0729,-4.0878,-4.0713,-4.0698,-4.0723,-4.0705,-4.069,-4.0681,-4.0624,-4.074,-4.0756,-4.0856,-4.0652,-4.1038,-4.1052,-4.1065,-4.1255,-4.1287,-4.1315,0,0,0,0,0,-4.0655,-4.0802,-4.0749,-4.0763,-4.0812,-4.0884,-4.089,-4.082,-4.0732,-4.0799,-4.0769,-4.0681,-4.0837,-4.0753,-4.0769,-4.0874,-4.1031,-4.1048,-4.1064,-4.1241,-4.1281,-4.1314,0,0,0,0,0,0,-4.0842,-4.0797,-4.0738,-4.0881,-4.0887,-4.0854,-4.0937,-4.0864,-4.0897,-4.0878,-4.0791,-4.0789,-4.0916,-4.0905,-4.0813,-4.1044,-4.0918,-4.0939,-4.1047,-4.1085,-4.1114,-4.1115,-4.0657,0,0,0,0,0,-4.09,-4.0962,-4.0919,-4.1049,-4.1055,-4.0996,-4.1025,-4.097,-4.0974,-4.0976,-4.0954,-4.0962,-4.1012,-4.1047,-4.1091,-4.1251,-4.1246,-4.133,-4.1361,-4.1386,-4.1405,-4.1489,-4.1527,-4.1127,-4.1127,-4.1127,0,0,-4.1021,-4.1003,-4.1048,-4.1087,-4.1085,-4.1152,-4.1,-4.1077,-4.1125,-4.0988,-4.1093,-4.1077,-4.108,-4.1217,-4.1276,-4.1212,-4.1514,-4.1407,-4.1427,-4.1433,-4.151,-4.1548,-4.1582,-4.1138,-4.1136,-4.1134,0,0,-4.1275,-4.1267,-4.1375,-4.1376,-4.1375,-4.1335,-4.1361,-4.1339,-4.1323,-4.1426,-4.1324,-4.1381,-4.1469,-4.1475,-4.149,-4.1744,-4.1665,-4.1761,-4.192,-4.2003,-4.2034,-4.2062,-4.2153,-4.2187,-4.178,-4.178,-4.1781,0,-4.1425,-4.152,-4.144,-4.1524,-4.1544,-4.142,-4.1529,-4.1534,-4.1549,-4.1566,-4.1493,-4.1601,-4.1594,-4.1731,-4.1793,-4.1808,-4.1836,-4.1763,-4.2036,-4.2063,-4.2087,-4.2174,-4.2208,-4.1792,-4.1791,-4.1789,-4.1788,0,-4.1706,-4.1773,-4.186,-4.1876,-4.1906,-4.2002,-4.1936,-4.1976,-4.1918,-4.1885,-4.1992,-4.1979,-4.2018,-4.2045,-4.199,-4.2175,-4.2135,-4.2051,-4.1923,-4.2138,-4.2218,-4.2251,-4.1809,-4.1805,-4.1801,-4.1798,0,0,-4.2081,-4.2049,-4.2083,-4.2088,-4.2077,-4.2128,-4.2218,-4.2254,-4.2291,-4.2304,-4.2378,-4.2454,-4.2376,-4.2392,-4.2336,-4.2409,-4.2612,-4.2315,-4.2314,-4.2372,-4.2816,-4.2882,-4.2921,-4.2559,-4.2565,-4.2569,-4.2816,0,-4.2328,-4.2479,-4.2409,-4.2569,-4.263,-4.2513,-4.2591,-4.2594,-4.2565,-4.2613,-4.2581,-4.2637,-4.2528,-4.2537,-4.2604,-4.2574,-4.2701,-4.2554,-4.2628,-4.2632,-4.2634,-4.2963,-4.3032,-4.3266,-4.2847,-4.2852,-4.2856,0,-4.2637,-4.2662,-4.2828,-4.2805,-4.2828,-4.29,-4.2928,-4.2975,-4.2975,-4.2948,-4.2967,-4.2893,-4.298,-4.2851,-4.297,-4.2873,-4.2898,-4.2887,-4.2895,-4.2901,-4.2759,-4.298,-4.3339,-4.3375,-4.2904,-4.29,-4.2897,0,-4.2896,-4.2971,-4.308,-4.3088,-4.3063,-4.3116,-4.3109,-4.3101,-4.3128,-4.3152,-4.3168,-4.3202,-4.3222,-4.325,-4.3189,-4.31,-4.3317,-4.3182,-4.3299,-4.3301,-4.3352,-4.335,-4.3722,-4.3365,-4.3365,-4.3364,-4.3363,0,-4.3181,-4.3288,-4.3196,-4.3263,-4.3379,-4.3296,-4.3413,-4.3392,-4.3387,-4.3448,-4.3348,-4.3408,-4.3322,-4.3374,-4.3325,-4.3432,-4.3441,-4.3423,-4.341,-4.3434,-4.3436,-4.3451,-4.3434,-4.3373,-4.3371,-4.3369,-4.3368,0,-4.3491,-4.3434,-4.3545,-4.3511,-4.3505,-4.3592,-4.3564,-4.3625,-4.3588,-4.3667,-4.3681,-4.3624,-4.3679,-4.3619,-4.3671,-4.3638,-4.3782,-4.3744,-4.3783,-4.3773,-4.3893,-4.3883,-4.429,-4.4339,-4.3949,-4.3953,-4.3956,0,-4.3678,-4.3757,-4.3731,-4.3765,-4.3763,-4.3818,-4.3844,-4.3765,-4.3796,-4.3801,-4.3862,-4.3908,-4.3942,-4.4036,-4.4,-4.4038,-4.4001,-4.4141,-4.4007,-4.4028,-4.4005,-4.4002,-4.401,-4.4169,-4.4174,-4.4178,-4.4181,0,-4.4016,-4.3983,-4.4023,-4.4055,-4.4088,-4.4109,-4.4122,-4.4155,-4.4073,-4.4113,-4.4168,-4.4194,-4.4245,-4.4293,-4.4321,-4.4313,-4.4235,-4.4223,-4.4252,-4.4279,-4.4299,-4.4291,-4.386,-4.4215,-4.4211,-4.4209,-4.4207,-4.4206,-4.4271,-4.4336,-4.4328,-4.4376,-4.4377,-4.4391,-4.4447,-4.4416,-4.446,-4.4495,-4.4445,-4.4514,-4.451,-4.4539,-4.4541,-4.4594,-4.4534,-4.4577,-4.4587,-4.46,-4.4618,-4.4288,-4.4598,-4.4597,-4.4596,-4.4595,-4.4594,0,-4.4605,-4.4594,-4.4639,-4.4659,-4.4698,-4.4617,-4.4627,-4.4665,-4.4726,-4.4729,-4.4763,-4.4826,-4.4872,-4.4838,-4.4877,-4.4925,-4.489,-4.4938,-4.4935,-4.4935,-4.4668,-4.464,-4.4966,-4.4966,-4.4966,-4.4966,-4.4966,-4.4966,-4.4784,-4.4889,-4.4855,-4.496,-4.4947,-4.5012,-4.5025,-4.5038,-4.5039,-4.5114,-4.5151,-4.5128,-4.5116,-4.5152,-4.5191,-4.5179,-4.5199,-4.5261,-4.5238,-4.499,-4.4954,-4.4919,-4.4892,-4.5265,-4.5266,-4.5499,-4.5502,-4.5503]},{"header":{"parameterUnit":"m.s-1","parameterCategory":1,"la1":30.2991,"la2":30.254,"lo1":-89.0895,"lo2":-89.0444,"dx":0.0017,"dy":0.0017,"nx":28,"ny":28,"refTime":"2022-11-19T09:00:00:Z","depth":0,"parameterNumber":3,"parameterNumberName":"V-component_of_WINDS"},"data":[0,0,0,0,0,0,0,0,0,0,0,0,0,0,0,0,0,0,0,0,0,0,0,0,0,0,0,0,0,0,0,0,0,0,0,0,0,0,0,0,0,0,0,0,0,0,0,0,0,0,0,0,0,0,0,0,0,0,-4.8171,-4.8172,0,-4.8183,-4.8183,-4.8183,-4.8111,-4.8109,-4.8107,-4.8105,-4.8116,-4.8118,-4.8121,0,0,0,0,0,0,0,0,0,0,0,0,0,-4.8084,-4.8086,-4.8171,-4.8172,-4.8172,-4.8183,-4.8183,-4.8184,-4.8112,-4.8109,-4.8107,-4.8104,-4.8116,-4.8118,-4.8121,0,0,0,0,0,0,0,0,0,0,0,0,0,-4.8112,-4.8087,-4.8171,-4.8137,-4.8134,-4.8183,-4.8183,-4.8184,-4.8112,-4.8109,-4.8106,-4.8103,-4.8115,-4.8118,-4.8121,-4.8203,0,0,-4.8131,-4.8133,0,0,0,0,0,0,0,0,-4.811,-4.8115,-4.8142,-4.814,-4.8136,-4.8143,-4.8157,-4.819,-4.8113,-4.8121,-4.8105,-4.8102,-4.8127,-4.8129,-4.8138,-4.8204,-4.8204,-4.8132,-4.8134,-4.8135,-4.8136,0,0,0,0,0,0,0,-4.8108,-4.8114,-4.8176,-4.8143,-4.8139,-4.812,-4.8121,-4.8163,-4.8141,-4.812,-4.8114,-4.8117,-4.8125,-4.8135,-4.8138,-4.8204,-4.8131,-4.8134,-4.8136,-4.8138,-4.8334,-4.8337,0,0,0,0,0,0,-4.8111,-4.8113,-4.8176,-4.8176,-4.8115,-4.8125,-4.8125,-4.8144,-4.814,-4.8137,-4.8119,-4.8113,-4.8131,-4.8134,-4.8138,-4.8232,-4.8135,-4.8138,-4.814,-4.8331,-4.8335,-4.8339,0,0,0,0,0,0,-4.811,-4.8118,-4.8175,-4.8143,-4.8149,-4.8129,-4.8151,-4.8146,-4.8156,-4.814,-4.8136,-4.8134,-4.8129,-4.8134,-4.8187,-4.8231,-4.814,-4.8143,-4.8327,-4.8332,-4.8337,-4.8421,0,0,0,0,0,0,-4.8107,-4.8117,-4.8149,-4.8145,-4.8151,-4.8225,-4.8154,-4.8148,-4.8162,-4.8154,-4.8153,-4.8149,-4.8127,-4.8182,-4.819,-4.8234,-4.8145,-4.8323,-4.833,-4.8335,-4.8414,-4.8428,-4.844,0,0,0,0,0,-4.8105,-4.8173,-4.8151,-4.8159,-4.819,-4.8227,-4.8231,-4.8204,-4.8166,-4.8196,-4.8186,-4.815,-4.8226,-4.8188,-4.8197,-4.8242,-4.832,-4.8328,-4.8335,-4.8408,-4.8425,-4.8439,0,0,0,0,0,0,-4.8183,-4.8171,-4.8147,-4.8216,-4.8223,-4.8215,-4.8253,-4.8223,-4.8241,-4.8233,-4.8199,-4.8199,-4.8257,-4.8255,-4.8214,-4.832,-4.8266,-4.8275,-4.8319,-4.8335,-4.8348,-4.8346,-4.8148,0,0,0,0,0,-4.8208,-4.824,-4.8228,-4.829,-4.8294,-4.8274,-4.8289,-4.8267,-4.8273,-4.8275,-4.8269,-4.8276,-4.8301,-4.8318,-4.8341,-4.8414,-4.8411,-4.8449,-4.8462,-4.8473,-4.848,-4.8516,-4.8532,-4.8362,-4.8362,-4.8362,0,0,-4.8261,-4.8259,-4.8281,-4.8305,-4.8308,-4.834,-4.8277,-4.8314,-4.8337,-4.8281,-4.833,-4.8326,-4.8331,-4.8394,-4.8422,-4.8394,-4.8527,-4.8482,-4.8491,-4.8492,-4.8525,-4.8541,-4.8556,-4.8367,-4.8367,-4.8366,0,0,-4.8372,-4.8375,-4.8425,-4.8429,-4.8434,-4.842,-4.8432,-4.8428,-4.8423,-4.8472,-4.843,-4.8457,-4.8501,-4.8506,-4.8514,-4.8626,-4.8592,-4.8634,-4.8701,-4.8737,-4.875,-4.8761,-4.8799,-4.8813,-4.8643,-4.8643,-4.8643,0,-4.8437,-4.8484,-4.8455,-4.8494,-4.8505,-4.8456,-4.8506,-4.8511,-4.8524,-4.8532,-4.8501,-4.8555,-4.8555,-4.8617,-4.8644,-4.8653,-4.8664,-4.8633,-4.8751,-4.8762,-4.8772,-4.8807,-4.8822,-4.8648,-4.8647,-4.8647,-4.8646,0,-4.8562,-4.8595,-4.8635,-4.8647,-4.8663,-4.8708,-4.8684,-4.8703,-4.8681,-4.8669,-4.8718,-4.8717,-4.8737,-4.875,-4.8729,-4.8809,-4.8791,-4.8757,-4.8701,-4.8794,-4.8826,-4.8839,-4.8655,-4.8653,-4.8652,-4.865,0,0,-4.8723,-4.8717,-4.8732,-4.8736,-4.8737,-4.8762,-4.8804,-4.8823,-4.8839,-4.885,-4.8882,-4.8921,-4.8887,-4.8897,-4.8875,-4.8907,-4.8992,-4.8867,-4.8867,-4.8888,-4.9077,-4.9102,-4.9118,-4.8971,-4.8973,-4.8975,-4.9076,0,-4.8829,-4.89,-4.8874,-4.8946,-4.8974,-4.8928,-4.8964,-4.8968,-4.8958,-4.8981,-4.897,-4.8996,-4.8952,-4.8957,-4.8987,-4.8976,-4.9029,-4.8968,-4.8999,-4.9,-4.8996,-4.9135,-4.9161,-4.9257,-4.9089,-4.9091,-4.9093,0,-4.8963,-4.8977,-4.9052,-4.9046,-4.9057,-4.909,-4.9104,-4.9127,-4.9131,-4.9121,-4.9131,-4.9102,-4.9141,-4.9088,-4.914,-4.91,-4.9111,-4.9107,-4.911,-4.911,-4.905,-4.9136,-4.9287,-4.93,-4.9113,-4.9111,-4.911,0,-4.9069,-4.9108,-4.9156,-4.9161,-4.9157,-4.918,-4.9179,-4.918,-4.9192,-4.9205,-4.9212,-4.923,-4.924,-4.9254,-4.923,-4.9194,-4.9285,-4.923,-4.9276,-4.9277,-4.9295,-4.9294,-4.9447,-4.9308,-4.9307,-4.9307,-4.9307,0,-4.9189,-4.9236,-4.9203,-4.9233,-4.9283,-4.9253,-4.9304,-4.9298,-4.9298,-4.9325,-4.9287,-4.9313,-4.9281,-4.9304,-4.9286,-4.933,-4.9336,-4.9328,-4.9322,-4.9329,-4.933,-4.9334,-4.9326,-4.9311,-4.931,-4.9309,-4.9309,0,-4.9316,-4.9296,-4.9345,-4.9336,-4.9335,-4.9373,-4.9364,-4.9391,-4.9378,-4.9413,-4.9419,-4.9399,-4.9424,-4.9402,-4.9426,-4.9414,-4.9472,-4.9459,-4.9471,-4.9466,-4.9512,-4.9507,-4.9671,-4.969,-4.9541,-4.9543,-4.9544,0,-4.9393,-4.9427,-4.9421,-4.9436,-4.9438,-4.9463,-4.9475,-4.9446,-4.9461,-4.9466,-4.9492,-4.9513,-4.9528,-4.957,-4.9557,-4.9575,-4.9559,-4.9616,-4.9561,-4.9567,-4.9556,-4.9554,-4.9556,-4.9626,-4.9627,-4.9629,-4.963,0,-4.953,-4.9518,-4.9537,-4.9552,-4.9568,-4.9579,-4.9587,-4.9601,-4.9572,-4.9589,-4.9614,-4.9626,-4.9649,-4.967,-4.9684,-4.9682,-4.9651,-4.9648,-4.9659,-4.9665,-4.967,-4.9665,-4.9498,-4.9643,-4.9642,-4.9641,-4.964,-4.964,-4.9632,-4.9659,-4.9658,-4.968,-4.9683,-4.9691,-4.9715,-4.9705,-4.9724,-4.9741,-4.9723,-4.9752,-4.9753,-4.9768,-4.977,-4.9792,-4.9768,-4.9785,-4.9789,-4.9792,-4.9798,-4.9669,-4.9795,-4.9794,-4.9794,-4.9793,-4.9793,0,-4.9764,-4.9761,-4.9782,-4.9793,-4.981,-4.978,-4.9786,-4.9802,-4.9828,-4.9832,-4.9847,-4.9874,-4.9894,-4.9883,-4.99,-4.9919,-4.9905,-4.9925,-4.9921,-4.9921,-4.982,-4.9807,-4.9935,-4.9935,-4.9935,-4.9935,-4.9935,-4.9935,-4.9835,-4.9879,-4.9867,-4.9911,-4.9908,-4.9935,-4.9941,-4.9948,-4.995,-4.9982,-4.9998,-4.999,-4.9987,-5.0004,-5.002,-5.0016,-5.0023,-5.0047,-5.0038,-4.9943,-4.9928,-4.9915,-4.9903,-5.0049,-5.005,-5.0137,-5.0138,-5.0138]}]]